Weather History for Lubbock, TX

Change the Weather History Date:

Tuesday, May 14, 2013

  Actual Average Record
Temperature  
Mean Temperature 75 °F 69 °F  
Max Temperature 89 °F 83 °F 100 °F (1996)
Min Temperature 60 °F 55 °F 35 °F (1953)
Degree Days  
Heating Degree Days 0 1  
Month to date heating degree days 86 27  
Since 1 July heating degree days 3208 3364  
Cooling Degree Days 10 6  
Month to date cooling degree days 25 60  
Year to date cooling degree days 87 116  
Growing Degree Days 24 (Base 50)    
Moisture  
Dew Point 43 °F    
Average Humidity 41    
Maximum Humidity 60    
Minimum Humidity 21    
Precipitation  
Precipitation T in 0.07 in 0.80 in (2012)
Month to date precipitation 0.35 0.84  
Year to date precipitation 2.62 4.75  
Snow  
Snow 0.00 in 0.00 in - ()
Month to date snowfall 0.0 0.0  
Since 1 July snowfall 4.1 8.2  
Snow Depth 0.00 in    
Sea Level Pressure  
Sea Level Pressure 29.93 in    
Wind  
Wind Speed 17 mph (SSW)    
Max Wind Speed 32 mph    
Max Gust Speed 38 mph    
Visibility 10 miles    
Events Rain , Thunderstorm    
T = Trace of Precipitation, MM = Missing Value Source: NWS Daily Summary

Daily Weather History Graph

Daily Weather History Graph

Search for Another Location

Airport:

Trip Planner

Search our weather history database for the weather conditions in past years. The results will help you decide how hot, cold, wet, or windy it might be!

Date:

Astronomy

May. 14, 2013 Rise Set
Actual Time 6:47 AM CDT 8:40 PM CDT
Civil Twilight 6:19 AM CDT 9:08 PM CDT
Nautical Twilight 5:46 AM CDT 9:41 PM CDT
Astronomical Twilight 5:11 AM CDT 10:16 PM CDT
Moon 10:28 AM CDT (5/14) No Moon Set
Length of Visible Light 14h 48m
Length of Day
13h 53m
Waxing Crescent, 19% of the Moon is Illuminated
May 14
Waxing Crescent
May 17
First Quarter
May 24
Full
May 31
Last Quarter
Jun 8
New

Hourly Weather History & Observations

Time (CDT) Temp. Dew Point Humidity Pressure Visibility Wind Dir Wind Speed Gust Speed Precip Events Conditions
12:53 AM 66.9 °F 30.9 °F 26% 30.03 in 10.0 mi South 15.0 mph - N/A   Clear
1:53 AM 68.0 °F 41.0 °F 37% 30.01 in 10.0 mi SSW 21.9 mph 27.6 mph N/A   Clear
2:53 AM 68.0 °F 46.0 °F 45% 30.00 in 10.0 mi SSW 21.9 mph 27.6 mph N/A   Clear
3:53 AM 66.9 °F 46.0 °F 47% 29.99 in 10.0 mi SSW 20.7 mph 27.6 mph N/A   Clear
4:53 AM 64.9 °F 46.9 °F 52% 30.00 in 10.0 mi SSW 17.3 mph - N/A   Clear
5:53 AM 63.0 °F 46.9 °F 56% 30.00 in 10.0 mi SW 13.8 mph - N/A   Clear
6:53 AM 60.1 °F 46.0 °F 60% 30.01 in 10.0 mi SW 10.4 mph - N/A   Clear
7:53 AM 64.0 °F 48.0 °F 56% 30.02 in 10.0 mi SSW 10.4 mph - N/A   Partly Cloudy
8:53 AM 68.0 °F 48.9 °F 50% 30.02 in 10.0 mi SSW 18.4 mph 21.9 mph N/A   Partly Cloudy
9:53 AM 71.1 °F 48.9 °F 45% 30.03 in 10.0 mi SSW 19.6 mph 25.3 mph N/A   Partly Cloudy
10:53 AM 73.9 °F 48.9 °F 41% 30.01 in 10.0 mi SW 15.0 mph - N/A   Partly Cloudy
11:53 AM 78.1 °F 46.9 °F 33% 29.99 in 10.0 mi South 12.7 mph - N/A   Scattered Clouds
12:53 PM 80.1 °F 44.1 °F 28% 29.96 in 10.0 mi SW 16.1 mph 21.9 mph N/A   Scattered Clouds
1:53 PM 82.9 °F 42.1 °F 24% 29.92 in 10.0 mi SW 19.6 mph 23.0 mph N/A   Scattered Clouds
2:53 PM 86.0 °F 41.0 °F 20% 29.88 in 10.0 mi SSW 15.0 mph 25.3 mph N/A   Scattered Clouds
3:53 PM 86.0 °F 41.0 °F 20% 29.85 in 10.0 mi SSW 16.1 mph 23.0 mph N/A   Scattered Clouds
4:53 PM 87.1 °F 37.0 °F 17% 29.82 in 10.0 mi South 16.1 mph - 0.00 in Rain Light Rain
5:34 PM 84.2 °F 37.4 °F 19% 29.95 in 10.0 mi SW 19.6 mph 33.4 mph 0.00 in Thunderstorm Thunderstorm
5:53 PM 82.4 °F 42.8 °F 25% 29.81 in 10.0 mi West 15.0 mph 23.0 mph 0.00 in Thunderstorm Thunderstorm
6:33 PM 82.4 °F 35.6 °F 19% 29.95 in 10.0 mi SSW 24.2 mph 29.9 mph 0.00 in   Mostly Cloudy
6:53 PM 82.0 °F 35.1 °F 18% 29.81 in 10.0 mi SSW 13.8 mph 20.7 mph 0.00 in   Mostly Cloudy
7:53 PM 80.1 °F 41.0 °F 25% 29.79 in 10.0 mi SSW 13.8 mph - N/A   Scattered Clouds
8:53 PM 75.0 °F 46.0 °F 36% 29.80 in 10.0 mi South 25.3 mph 38.0 mph N/A   Scattered Clouds
9:53 PM 70.0 °F 46.0 °F 42% 29.82 in 9.0 mi South 17.3 mph - N/A   Partly Cloudy
10:53 PM 68.0 °F 48.0 °F 49% 29.87 in 8.0 mi South 17.3 mph 23.0 mph N/A   Mostly Cloudy
11:53 PM 66.9 °F 46.9 °F 49% 29.85 in 10.0 mi South 20.7 mph - N/A   Mostly Cloudy